Powrót do katalogu

STARLINK-6287

AktywnyŁącznośćVLEO
NORAD 56404·PAYLOAD·🇺🇸 United States

Wystrzelony May 4, 2023 z Cape Canaveral Space Force Station

Loading…

Następne Przeloty (najbliższe 24 godziny)

TLE

ŚwieżeSource: CelesTrak SupGP

Epoka: Sep 15, 2026, 02:03 UTC

1 56404C 23061AG  26258.08590278 -.00012276  00000+0 -44475-3 0  2587
2 56404  42.9994 197.6312 0000867 243.2832 268.9905 15.27575706    17

Śledź STARLINK-6287 w czasie rzeczywistym z AllMySat

Download on the App Store